• In Hungary
  • List of Countries
  • For 7 days
  • Water Temperature
  • Satellite Maps
  • Weather Map
  • News
  • Weather Widgets
  • user-avatar
    Login

    Hourly Weather Boguszów-Gorce

    Today, 24 September, Monday

    Time Temperature Precipitation Wind Pressure Humidity
    00:00 +7°C° 0.5 mm 8 mps 708 mmHg 88%
    01:00 +5°C° 0.5 mm 8 mps 710 mmHg 87%
    02:00 +5°C° 0.1 mm 8 mps 711 mmHg 86%
    03:00 +4°C° 0.1 mm 7 mps 712 mmHg 86%
    04:00 +4°C° 0.1 mm 7 mps 714 mmHg 85%
    05:00 +4°C° 0 mm 7 mps 714 mmHg 84%
    06:00 +4°C° 0 mm 7 mps 715 mmHg 82%
    07:00 +4°C° 0 mm 8 mps 716 mmHg 80%
    08:00 +4°C° 0.1 mm 8 mps 716 mmHg 77%
    09:00 +5°C° 0.1 mm 8 mps 717 mmHg 73%
    10:00 +5°C° 0.1 mm 9 mps 718 mmHg 69%
    11:00 +6°C° 0.1 mm 9 mps 719 mmHg 65%
    12:00 +7°C° 0.1 mm 9 mps 719 mmHg 60%
    13:00 +8°C° 0.1 mm 9 mps 719 mmHg 55%
    14:00 +7°C° 0.1 mm 9 mps 719 mmHg 55%
    15:00 +7°C° 0.1 mm 9 mps 719 mmHg 55%
    16:00 +7°C° 0.1 mm 8 mps 719 mmHg 55%
    17:00 +6°C° 0 mm 7 mps 720 mmHg 59%
    18:00 +5°C° 0 mm 6 mps 720 mmHg 63%
    19:00 +5°C° 0 mm 5 mps 721 mmHg 67%
    20:00 +3°C° 0 mm 5 mps 721 mmHg 69%
    21:00 +4°C° 0 mm 4 mps 722 mmHg 71%
    22:00 +4°C° 0 mm 4 mps 722 mmHg 73%
    23:00 +3°C° 0 mm 4 mps 723 mmHg 74%

    Tomorrow, 25 September, Tuesday

    Time Temperature Precipitation Wind Pressure Humidity
    00:00 +3°C° 0 mm 4 mps 723 mmHg 76%
    01:00 +1°C° 0 mm 4 mps 723 mmHg 78%
    02:00 +1°C° 0 mm 4 mps 723 mmHg 80%
    03:00 +1°C° 0 mm 4 mps 724 mmHg 81%
    04:00 0°C° 0 mm 4 mps 724 mmHg 83%
    05:00 +1°C° 0 mm 4 mps 724 mmHg 82%
    06:00 +1°C° 0 mm 4 mps 725 mmHg 81%
    07:00 +1°C° 0 mm 4 mps 725 mmHg 80%
    08:00 +4°C° 0 mm 4 mps 726 mmHg 73%
    09:00 +5°C° 0 mm 4 mps 727 mmHg 65%
    10:00 +7°C° 0 mm 5 mps 727 mmHg 57%
    11:00 +8°C° 0 mm 5 mps 727 mmHg 54%
    12:00 +8°C° 0 mm 4 mps 727 mmHg 51%
    13:00 +10°C° 0 mm 4 mps 727 mmHg 47%
    14:00 +10°C° 0 mm 4 mps 727 mmHg 48%
    15:00 +10°C° 0 mm 4 mps 727 mmHg 48%
    16:00 +10°C° 0 mm 3 mps 727 mmHg 48%
    17:00 +8°C° 0 mm 3 mps 728 mmHg 54%
    18:00 +7°C° 0 mm 2 mps 728 mmHg 60%
    19:00 +5°C° 0 mm 2 mps 728 mmHg 66%
    20:00 +5°C° 0 mm 2 mps 728 mmHg 68%
    21:00 +5°C° 0 mm 1 mps 729 mmHg 70%
    22:00 +5°C° 0 mm 1 mps 729 mmHg 71%
    23:00 +4°C° 0 mm 1 mps 729 mmHg 72%

    Day after tomorrow, 26 September, Wednesday

    Time Temperature Precipitation Wind Pressure Humidity
    00:00 +4°C° 0 mm 1 mps 729 mmHg 73%
    01:00 +4°C° 0 mm 1 mps 729 mmHg 74%
    02:00 +4°C° 0 mm 1 mps 728 mmHg 74%
    03:00 +3°C° 0 mm 1 mps 728 mmHg 75%
    04:00 +3°C° 0 mm 1 mps 728 mmHg 76%
    05:00 +4°C° 0 mm 1 mps 728 mmHg 75%
    06:00 +3°C° 0 mm 2 mps 728 mmHg 73%
    07:00 +4°C° 0 mm 2 mps 728 mmHg 72%
    08:00 +6°C° 0 mm 2 mps 728 mmHg 64%
    09:00 +8°C° 0 mm 3 mps 728 mmHg 56%
    10:00 +10°C° 0 mm 4 mps 728 mmHg 48%
    11:00 +11°C° 0 mm 4 mps 728 mmHg 46%
    12:00 +12°C° 0 mm 4 mps 727 mmHg 43%
    13:00 +13°C° 0 mm 4 mps 727 mmHg 40%
    14:00 +13°C° 0 mm 4 mps 726 mmHg 42%
    15:00 +13°C° 0 mm 4 mps 726 mmHg 43%
    16:00 +13°C° 0 mm 3 mps 725 mmHg 45%
    17:00 +11°C° 0 mm 3 mps 725 mmHg 48%
    18:00 +10°C° 0 mm 3 mps 725 mmHg 50%
    19:00 +9°C° 0 mm 3 mps 725 mmHg 53%
    20:00 +8°C° 0 mm 3 mps 724 mmHg 54%
    21:00 +8°C° 0 mm 3 mps 724 mmHg 55%
    22:00 +8°C° 0 mm 3 mps 724 mmHg 56%
    23:00 +8°C° 0 mm 3 mps 724 mmHg 57%

    27 September, Thursday

    Time Temperature Precipitation Wind Pressure Humidity
    00:00 +7°C° 0 mm 3 mps 724 mmHg 57%
    01:00 +7°C° 0 mm 3 mps 724 mmHg 58%
    02:00 +7°C° 0 mm 3 mps 723 mmHg 58%
    03:00 +7°C° 0 mm 3 mps 723 mmHg 58%
    04:00 +8°C° 0 mm 3 mps 723 mmHg 58%
    05:00 +8°C° 0 mm 3 mps 723 mmHg 58%
    06:00 +8°C° 0 mm 3 mps 723 mmHg 58%
    07:00 +9°C° 0 mm 3 mps 723 mmHg 58%
    08:00 +11°C° 0 mm 3 mps 723 mmHg 56%
    09:00 +13°C° 0 mm 3 mps 723 mmHg 53%
    10:00 +15°C° 0 mm 4 mps 723 mmHg 51%
    11:00 +17°C° 0 mm 4 mps 723 mmHg 50%
    12:00 +18°C° 0 mm 4 mps 723 mmHg 50%
    13:00 +19°C° 0 mm 4 mps 723 mmHg 50%
    14:00 +19°C° 0 mm 4 mps 722 mmHg 51%
    15:00 +19°C° 0 mm 4 mps 722 mmHg 53%
    16:00 +19°C° 0 mm 3 mps 721 mmHg 54%
    17:00 +17°C° 0 mm 3 mps 721 mmHg 59%
    18:00 +14°C° 0 mm 3 mps 720 mmHg 63%
    19:00 +14°C° 0 mm 2 mps 720 mmHg 67%
    20:00 +13°C° 0 mm 2 mps 720 mmHg 67%
    21:00 +13°C° 0 mm 2 mps 719 mmHg 67%
    22:00 +13°C° 0 mm 2 mps 719 mmHg 67%
    23:00 +12°C° 0 mm 2 mps 719 mmHg 68%

    28 September, Friday

    Time Temperature Precipitation Wind Pressure Humidity
    00:00 +12°C° 0 mm 2 mps 719 mmHg 68%
    01:00 +12°C° 0 mm 2 mps 718 mmHg 69%
    02:00 +10°C° 0 mm 2 mps 718 mmHg 71%
    03:00 +10°C° 0 mm 2 mps 718 mmHg 72%
    04:00 +9°C° 0 mm 2 mps 718 mmHg 73%
    05:00 +9°C° 0 mm 2 mps 718 mmHg 73%
    06:00 +9°C° 0 mm 2 mps 718 mmHg 72%
    07:00 +9°C° 0 mm 2 mps 718 mmHg 72%
    08:00 +12°C° 0 mm 2 mps 718 mmHg 68%
    09:00 +14°C° 0 mm 2 mps 719 mmHg 64%
    10:00 +16°C° 0 mm 2 mps 719 mmHg 61%
    11:00 +16°C° 0 mm 2 mps 719 mmHg 62%
    12:00 +16°C° 0 mm 2 mps 719 mmHg 63%
    13:00 +16°C° 0 mm 3 mps 719 mmHg 64%
    14:00 +16°C° 0 mm 3 mps 718 mmHg 67%
    15:00 +14°C° 0 mm 3 mps 718 mmHg 70%
    16:00 +13°C° 0 mm 3 mps 718 mmHg 72%
    17:00 +12°C° 0 mm 3 mps 718 mmHg 76%
    18:00 +12°C° 0 mm 2 mps 718 mmHg 79%
    19:00 +10°C° 0 mm 2 mps 718 mmHg 82%
    20:00 +10°C° 0.1 mm 2 mps 719 mmHg 81%
    21:00 +9°C° 0.1 mm 2 mps 719 mmHg 80%
    22:00 +9°C° 0.1 mm 2 mps 719 mmHg 79%
    23:00 +8°C° 0.1 mm 2 mps 720 mmHg 79%

    29 September, Saturday

    Time Temperature Precipitation Wind Pressure Humidity
    00:00 +8°C° 0.1 mm 2 mps 720 mmHg 80%
    01:00 +7°C° 0.1 mm 2 mps 720 mmHg 80%
    02:00 +6°C° 0 mm 2 mps 720 mmHg 82%
    03:00 +5°C° 0 mm 2 mps 720 mmHg 84%
    04:00 +5°C° 0 mm 2 mps 720 mmHg 86%
    05:00 +5°C° 0 mm 2 mps 720 mmHg 86%
    06:00 +5°C° 0 mm 2 mps 721 mmHg 85%
    07:00 +5°C° 0 mm 2 mps 721 mmHg 84%
    08:00 +6°C° 0 mm 2 mps 722 mmHg 75%
    09:00 +8°C° 0 mm 3 mps 722 mmHg 66%
    10:00 +9°C° 0 mm 3 mps 723 mmHg 57%
    11:00 +10°C° 0 mm 3 mps 723 mmHg 53%
    12:00 +11°C° 0 mm 3 mps 722 mmHg 49%
    13:00 +12°C° 0 mm 3 mps 722 mmHg 45%
    14:00 +12°C° 0 mm 3 mps 722 mmHg 46%
    15:00 +11°C° 0 mm 3 mps 722 mmHg 47%
    16:00 +11°C° 0 mm 3 mps 722 mmHg 48%
    17:00 +10°C° 0 mm 2 mps 722 mmHg 54%
    18:00 +8°C° 0 mm 2 mps 722 mmHg 61%
    19:00 +6°C° 0 mm 2 mps 722 mmHg 67%
    20:00 +6°C° 0 mm 2 mps 722 mmHg 69%
    21:00 +5°C° 0 mm 2 mps 722 mmHg 72%
    22:00 +5°C° 0 mm 2 mps 722 mmHg 75%
    23:00 +5°C° 0 mm 2 mps 721 mmHg 76%
    Show more

    3.3.7123123